Weather History for KORC - May, 2013

Change the Weather History Date:

Monday, May 13, 2013

  Actual Average Record
Temperature  
Mean Temperature 66 °F -  
Max Temperature 87 °F 68 °F 87 °F (2013)
Min Temperature 46 °F 47 °F 30 °F (1997)
Cooling Degree Days 2    
Growing Degree Days 16 (Base 50)    
Moisture  
Dew Point 35 °F    
Average Humidity 34    
Maximum Humidity 49    
Minimum Humidity 17    
Precipitation  
Precipitation 0.00 in - - ()
Sea Level Pressure  
Sea Level Pressure 29.93 in    
Wind  
Wind Speed 10 mph (South)    
Max Wind Speed 30 mph    
Max Gust Speed 36 mph    
Visibility 10 miles    
Events      
Averages and records for this station are not official NWS values.
T = Trace of Precipitation, MM = Missing Value Source: NWS Daily Summary

Daily Weather History Graph

Daily Weather History Graph

Search for Another Location

Airport or City:

Trip Planner

Search our weather history database for the weather conditions in past years. The results will help you decide how hot, cold, wet, or windy it might be!

Date:

Astronomy

May. 13, 2013 Rise Set
Actual Time 6:02 AM CDT 8:38 PM CDT
Civil Twilight 5:30 AM CDT 9:11 PM CDT
Nautical Twilight 4:49 AM CDT 9:52 PM CDT
Astronomical Twilight 4:03 AM CDT 10:38 PM CDT
Moon 8:49 AM CDT (5/13) 11:48 PM CDT (5/13)
Length of Visible Light 15h 41m
Length of Day
14h 36m
Waxing Crescent, 12% of the Moon is Illuminated
May 13
Waxing Crescent
May 17
First Quarter
May 24
Full
May 31
Last Quarter
Jun 8
New

Hourly Weather History & Observations

Time (CDT) Temp. Windchill Dew Point Humidity Pressure Visibility Wind Dir Wind Speed Gust Speed Precip Events Conditions
12:15 AM 50.0 °F - 19.4 °F 30% 30.10 in 10.0 mi Calm Calm - N/A   Clear
12:35 AM 51.8 °F - 19.4 °F 28% 30.10 in 10.0 mi SSE 4.6 mph - N/A   Clear
12:55 AM 50.0 °F - 19.4 °F 30% 30.10 in 10.0 mi SSE 5.8 mph - N/A   Clear
1:15 AM 50.0 °F - 19.4 °F 30% 30.10 in 10.0 mi SSE 5.8 mph - N/A   Clear
1:35 AM 50.0 °F - 21.2 °F 32% 30.11 in 10.0 mi SSE 3.5 mph - N/A   Clear
1:55 AM 50.0 °F - 19.4 °F 30% 30.10 in 10.0 mi SSE 4.6 mph - N/A   Clear
2:15 AM 50.0 °F - 19.4 °F 30% 30.09 in 10.0 mi SSE 4.6 mph - N/A   Clear
2:35 AM 50.0 °F - 19.4 °F 30% 30.08 in 10.0 mi SSE 5.8 mph - N/A   Clear
2:55 AM 48.2 °F - 19.4 °F 32% 30.08 in 10.0 mi SSE 5.8 mph - N/A   Clear
3:15 AM 48.2 °F - 21.2 °F 34% 30.08 in 10.0 mi South 4.6 mph - N/A   Clear
3:35 AM 48.2 °F - 23.0 °F 37% 30.08 in 10.0 mi SSE 4.6 mph - N/A   Clear
3:55 AM 48.2 °F - 21.2 °F 34% 30.08 in 10.0 mi SSE 4.6 mph - N/A   Clear
4:15 AM 48.2 °F - 21.2 °F 34% 30.07 in 10.0 mi SSE 5.8 mph - N/A   Clear
4:35 AM 48.2 °F - 23.0 °F 37% 30.06 in 10.0 mi South 4.6 mph - N/A   Clear
4:55 AM 48.2 °F - 23.0 °F 37% 30.07 in 10.0 mi SSE 4.6 mph - N/A   Clear
5:15 AM 46.4 °F 43.5 °F 21.2 °F 37% 30.07 in 10.0 mi SSE 5.8 mph - N/A   Clear
5:35 AM 46.4 °F 44.3 °F 21.2 °F 37% 30.06 in 10.0 mi SSE 4.6 mph - N/A   Clear
5:55 AM 46.4 °F 43.5 °F 23.0 °F 40% 30.05 in 10.0 mi SSE 5.8 mph - N/A   Clear
6:15 AM 46.4 °F 44.3 °F 24.8 °F 43% 30.05 in 10.0 mi SSE 4.6 mph - N/A   Clear
6:35 AM 46.4 °F 43.5 °F 24.8 °F 43% 30.05 in 10.0 mi SSE 5.8 mph - N/A   Clear
6:55 AM 46.4 °F 43.5 °F 26.6 °F 46% 30.05 in 10.0 mi SSE 5.8 mph - N/A   Clear
7:15 AM 48.2 °F - 26.6 °F 43% 30.04 in 10.0 mi SSE 5.8 mph - N/A   Clear
7:35 AM 50.0 °F - 28.4 °F 43% 30.04 in 10.0 mi SSE 9.2 mph - N/A   Clear
7:55 AM 51.8 °F - 30.2 °F 44% 30.03 in 10.0 mi South 9.2 mph - N/A   Clear
8:15 AM 53.6 °F - 32.0 °F 44% 30.03 in 10.0 mi South 10.4 mph - N/A   Clear
8:35 AM 55.4 °F - 35.6 °F 47% 30.03 in 10.0 mi South 10.4 mph - N/A   Clear
8:55 AM 55.4 °F - 35.6 °F 47% 30.02 in 10.0 mi South 13.8 mph 18.4 mph N/A   Clear
9:15 AM 57.2 °F - 37.4 °F 48% 30.01 in 10.0 mi South 17.3 mph 21.9 mph N/A   Clear
9:35 AM 60.8 °F - 39.2 °F 45% 30.00 in 10.0 mi South 13.8 mph - N/A   Clear
9:55 AM 62.6 °F - 41.0 °F 45% 29.99 in 10.0 mi South 17.3 mph 23.0 mph N/A   Clear
10:15 AM 62.6 °F - 39.2 °F 42% 29.98 in 10.0 mi South 17.3 mph 23.0 mph N/A   Clear
10:35 AM 64.4 °F - 41.0 °F 42% 29.97 in 10.0 mi SSW 20.7 mph 25.3 mph N/A   Clear
10:55 AM 66.2 °F - 41.0 °F 40% 29.97 in 10.0 mi South 19.6 mph 25.3 mph N/A   Clear
11:15 AM 66.2 °F - 41.0 °F 40% 29.95 in 10.0 mi South 17.3 mph 25.3 mph N/A   Clear
11:35 AM 69.8 °F - 42.8 °F 38% 29.95 in 10.0 mi South 20.7 mph 24.2 mph N/A   Clear
11:55 AM 69.8 °F - 42.8 °F 38% 29.94 in 10.0 mi South 19.6 mph 26.5 mph N/A   Clear
12:15 PM 71.6 °F - 42.8 °F 35% 29.93 in 10.0 mi South 20.7 mph 27.6 mph N/A   Clear
12:35 PM 73.4 °F - 42.8 °F 33% 29.92 in 10.0 mi South 24.2 mph 29.9 mph N/A   Clear
12:55 PM 75.2 °F - 42.8 °F 31% 29.90 in 10.0 mi SSW 21.9 mph 27.6 mph N/A   Clear
1:15 PM 75.2 °F - 42.8 °F 31% 29.89 in 10.0 mi South 21.9 mph 29.9 mph N/A   Clear
1:35 PM 78.8 °F - 42.8 °F 28% 29.88 in 10.0 mi South 24.2 mph 34.5 mph N/A   Clear
1:55 PM 78.8 °F - 42.8 °F 28% 29.87 in 10.0 mi SSW 27.6 mph 33.4 mph N/A   Clear
2:15 PM 80.6 °F - 41.0 °F 24% 29.86 in 10.0 mi SW 23.0 mph 33.4 mph N/A   Clear
2:35 PM 80.6 °F - 41.0 °F 24% 29.85 in 10.0 mi SSW 29.9 mph 35.7 mph N/A   Clear
3:35 PM 82.4 °F - 37.4 °F 20% 29.82 in 10.0 mi SW 27.6 mph 35.7 mph N/A   Clear
3:55 PM 84.2 °F - 37.4 °F 19% 29.82 in 10.0 mi SW 26.5 mph 33.4 mph N/A   Clear
4:15 PM 84.2 °F - 37.4 °F 19% 29.81 in 10.0 mi SW 25.3 mph 35.7 mph N/A   Clear
4:35 PM 84.2 °F - 37.4 °F 19% 29.81 in 10.0 mi SW 26.5 mph 32.2 mph N/A   Clear
4:55 PM 86.0 °F - 37.4 °F 18% 29.80 in 10.0 mi SW 21.9 mph 29.9 mph N/A   Clear
5:15 PM 86.0 °F - 37.4 °F 18% 29.79 in 10.0 mi SW 21.9 mph 31.1 mph N/A   Clear
5:35 PM 87.8 °F - 37.4 °F 17% 29.79 in 10.0 mi SW 23.0 mph 28.8 mph N/A   Clear
5:55 PM 87.8 °F - 39.2 °F 18% 29.78 in 10.0 mi SW 18.4 mph 26.5 mph N/A   Clear
6:35 PM 87.8 °F - 42.8 °F 21% 29.77 in 10.0 mi SW 12.7 mph 21.9 mph N/A   Clear
7:15 PM 84.2 °F - 42.8 °F 23% 29.77 in 10.0 mi SW 15.0 mph - N/A   Clear
7:35 PM 84.2 °F - 42.8 °F 23% 29.77 in 10.0 mi SW 11.5 mph - N/A   Clear
7:55 PM 82.4 °F - 42.8 °F 25% 29.77 in 10.0 mi SW 12.7 mph - N/A   Clear
8:15 PM 82.4 °F - 42.8 °F 25% 29.77 in 10.0 mi SW 11.5 mph - N/A   Clear
8:35 PM 78.8 °F - 44.6 °F 30% 29.77 in 10.0 mi SW 9.2 mph - N/A   Clear
8:55 PM 78.8 °F - 44.6 °F 30% 29.76 in 10.0 mi SW 10.4 mph - N/A   Clear
9:15 PM 75.2 °F - 44.6 °F 34% 29.77 in 10.0 mi SW 10.4 mph - N/A   Clear
9:35 PM 73.4 °F - 44.6 °F 36% 29.77 in 10.0 mi SSW 10.4 mph - N/A   Clear
9:55 PM 69.8 °F - 46.4 °F 43% 29.78 in 10.0 mi SSW 8.1 mph - N/A   Clear
10:15 PM 69.8 °F - 46.4 °F 43% 29.78 in 10.0 mi SSW 8.1 mph - N/A   Clear
10:35 PM 69.8 °F - 46.4 °F 43% 29.79 in 10.0 mi SSW 11.5 mph - N/A   Clear
10:55 PM 71.6 °F - 44.6 °F 38% 29.79 in 10.0 mi SW 10.4 mph - N/A   Clear
11:15 PM 69.8 °F - 46.4 °F 43% 29.78 in 10.0 mi SW 9.2 mph - N/A   Clear
11:35 PM 66.2 °F - 46.4 °F 49% 29.79 in 10.0 mi SSW 3.5 mph - N/A   Clear
11:55 PM 68.0 °F - 46.4 °F 46% 29.79 in 10.0 mi SSW 6.9 mph - N/A   Clear